When you browse on this site, cookies collect data to enhance your experience and personalize the content and advertising you see.
Visit our Privacy Policy to learn more. By continuing to use the site, you agree to this use of cookies and data.
  • In Österreich
  • Länderverzeichnis
  • Für 7 Tage
  • Wassertemperatur
  • Satellitenkarten
  • Wetterkarte
  • News
  • Widgets
  • user-avatar
    Anmelden

    Stündliche Wetter Chyhrynivka

    Heute, 21 Januar, Montag

    Zeit Temperatur Niederschläge Wind Luftdruck Luftfeuchtigkeit
    00:00 -5°C° 0.8 mm 3 m/S 751 mmHg 94%
    01:00 -5°C° 0.8 mm 3 m/S 750 mmHg 96%
    02:00 -3°C° 0 mm 2 m/S 749 mmHg 97%
    03:00 -3°C° 1.2 mm 2 m/S 749 mmHg 97%
    04:00 -3°C° 1.2 mm 2 m/S 748 mmHg 98%
    05:00 -3°C° 1.2 mm 2 m/S 747 mmHg 98%
    06:00 -3°C° 0.9 mm 2 m/S 747 mmHg 97%
    07:00 -4°C° 0.9 mm 3 m/S 747 mmHg 97%
    08:00 -4°C° 0 mm 4 m/S 747 mmHg 96%
    09:00 -5°C° 0.2 mm 5 m/S 748 mmHg 95%
    10:00 -5°C° 0.2 mm 5 m/S 748 mmHg 94%
    11:00 -5°C° 0.2 mm 6 m/S 748 mmHg 93%
    12:00 -5°C° 0.1 mm 6 m/S 749 mmHg 92%
    13:00 -5°C° 0.1 mm 6 m/S 749 mmHg 91%
    14:00 -5°C° 0.1 mm 6 m/S 750 mmHg 90%
    15:00 -6°C° 0 mm 6 m/S 750 mmHg 91%
    16:00 -7°C° 0 mm 5 m/S 751 mmHg 91%
    17:00 -8°C° 0 mm 5 m/S 752 mmHg 92%
    18:00 -10°C° 0 mm 5 m/S 752 mmHg 92%
    19:00 -11°C° 0 mm 5 m/S 753 mmHg 92%
    20:00 -10°C° 0 mm 4 m/S 753 mmHg 92%
    21:00 -12°C° 0 mm 4 m/S 753 mmHg 93%
    22:00 -13°C° 0 mm 3 m/S 754 mmHg 94%
    23:00 -14°C° 0 mm 3 m/S 754 mmHg 95%

    Morgen, 22 Januar, Dienstag

    Zeit Temperatur Niederschläge Wind Luftdruck Luftfeuchtigkeit
    00:00 -14°C° 0 mm 2 m/S 754 mmHg 96%
    01:00 -15°C° 0 mm 2 m/S 755 mmHg 97%
    02:00 -16°C° 0 mm 2 m/S 755 mmHg 97%
    03:00 -14°C° 0 mm 1 m/S 755 mmHg 98%
    04:00 -15°C° 0 mm 1 m/S 755 mmHg 98%
    05:00 -15°C° 0 mm 1 m/S 755 mmHg 99%
    06:00 -15°C° 0 mm 1 m/S 755 mmHg 99%
    07:00 -15°C° 0 mm 0 m/S 755 mmHg 99%
    08:00 -15°C° 0 mm 0 m/S 756 mmHg 99%
    09:00 -13°C° 0 mm 0 m/S 756 mmHg 96%
    10:00 -12°C° 0 mm 1 m/S 756 mmHg 94%
    11:00 -10°C° 0 mm 1 m/S 756 mmHg 91%
    12:00 -9°C° 0 mm 1 m/S 756 mmHg 90%
    13:00 -9°C° 0 mm 1 m/S 755 mmHg 90%
    14:00 -8°C° 0 mm 1 m/S 755 mmHg 90%
    15:00 -10°C° 0 mm 2 m/S 755 mmHg 91%
    16:00 -12°C° 0 mm 2 m/S 755 mmHg 92%
    17:00 -14°C° 0 mm 2 m/S 754 mmHg 93%
    18:00 -13°C° 0 mm 2 m/S 754 mmHg 93%
    19:00 -13°C° 0 mm 2 m/S 754 mmHg 92%
    20:00 -14°C° 0 mm 3 m/S 754 mmHg 92%
    21:00 -13°C° 0 mm 3 m/S 754 mmHg 91%
    22:00 -13°C° 0 mm 3 m/S 754 mmHg 91%
    23:00 -13°C° 0 mm 3 m/S 753 mmHg 90%

    übermorgen, 23 Januar, Mittwoch

    Zeit Temperatur Niederschläge Wind Luftdruck Luftfeuchtigkeit
    00:00 -12°C° 0 mm 3 m/S 753 mmHg 90%
    01:00 -12°C° 0 mm 3 m/S 753 mmHg 90%
    02:00 -12°C° 0 mm 3 m/S 753 mmHg 90%
    03:00 -11°C° 0.1 mm 4 m/S 752 mmHg 90%
    04:00 -11°C° 0.1 mm 4 m/S 751 mmHg 91%
    05:00 -11°C° 0.1 mm 5 m/S 751 mmHg 91%
    06:00 -11°C° 0.1 mm 5 m/S 751 mmHg 92%
    07:00 -11°C° 0.1 mm 5 m/S 750 mmHg 93%
    08:00 -10°C° 0.1 mm 5 m/S 750 mmHg 94%
    09:00 -10°C° 0.3 mm 6 m/S 750 mmHg 94%
    10:00 -9°C° 0.3 mm 7 m/S 750 mmHg 94%
    11:00 -8°C° 0.3 mm 7 m/S 749 mmHg 94%
    12:00 -7°C° 0.6 mm 7 m/S 748 mmHg 94%
    13:00 -7°C° 0.6 mm 7 m/S 747 mmHg 94%
    14:00 -7°C° 0.6 mm 8 m/S 747 mmHg 95%
    15:00 -6°C° 0.8 mm 8 m/S 746 mmHg 95%
    16:00 -6°C° 0.8 mm 8 m/S 745 mmHg 95%
    17:00 -5°C° 0.8 mm 8 m/S 744 mmHg 94%
    18:00 -3°C° 1.5 mm 7 m/S 744 mmHg 96%
    19:00 -2°C° 1.5 mm 7 m/S 743 mmHg 97%
    20:00 -1°C° 1.5 mm 7 m/S 743 mmHg 99%
    21:00 -1°C° 0.2 mm 7 m/S 742 mmHg 99%
    22:00 -1°C° 0.2 mm 6 m/S 742 mmHg 99%
    23:00 -1°C° 0.2 mm 6 m/S 742 mmHg 99%

    24 Januar, Donnerstag

    Zeit Temperatur Niederschläge Wind Luftdruck Luftfeuchtigkeit
    00:00 0°C° 0.1 mm 5 m/S 742 mmHg 99%
    01:00 0°C° 0.1 mm 5 m/S 742 mmHg 99%
    02:00 0°C° 0.1 mm 4 m/S 742 mmHg 99%
    03:00 0°C° 0 mm 4 m/S 742 mmHg 99%
    04:00 0°C° 0 mm 4 m/S 742 mmHg 99%
    05:00 +1°C° 0 mm 3 m/S 742 mmHg 99%
    06:00 0°C° 0 mm 3 m/S 743 mmHg 99%
    07:00 +1°C° 0 mm 2 m/S 744 mmHg 99%
    08:00 +1°C° 0 mm 2 m/S 744 mmHg 99%
    09:00 +1°C° 0 mm 2 m/S 744 mmHg 99%
    10:00 +1°C° 0 mm 2 m/S 745 mmHg 99%
    11:00 +2°C° 0 mm 1 m/S 745 mmHg 99%
    12:00 +1°C° 0 mm 2 m/S 745 mmHg 99%
    13:00 -1°C° 0 mm 2 m/S 745 mmHg 99%
    14:00 -1°C° 0 mm 3 m/S 745 mmHg 99%
    15:00 -1°C° 0.3 mm 3 m/S 745 mmHg 98%
    16:00 -2°C° 0.3 mm 3 m/S 745 mmHg 97%
    17:00 -2°C° 0.3 mm 3 m/S 745 mmHg 96%
    18:00 -2°C° 0 mm 3 m/S 746 mmHg 96%
    19:00 -4°C° 0 mm 3 m/S 746 mmHg 95%
    20:00 -4°C° 0 mm 3 m/S 746 mmHg 95%
    21:00 -4°C° 0.2 mm 4 m/S 746 mmHg 95%
    22:00 -5°C° 0.2 mm 4 m/S 746 mmHg 95%
    23:00 -5°C° 0.2 mm 4 m/S 746 mmHg 95%

    25 Januar, Freitag

    Zeit Temperatur Niederschläge Wind Luftdruck Luftfeuchtigkeit
    00:00 -5°C° 0.1 mm 4 m/S 746 mmHg 95%
    01:00 -5°C° 0.1 mm 4 m/S 746 mmHg 95%
    02:00 -5°C° 0.1 mm 4 m/S 746 mmHg 95%
    03:00 -7°C° 0.1 mm 5 m/S 746 mmHg 95%
    04:00 -7°C° 0.1 mm 5 m/S 746 mmHg 95%
    05:00 -7°C° 0.1 mm 5 m/S 746 mmHg 95%
    06:00 -8°C° 0 mm 5 m/S 746 mmHg 95%
    07:00 -10°C° 0 mm 5 m/S 746 mmHg 96%
    08:00 -11°C° 0 mm 5 m/S 746 mmHg 96%
    09:00 -11°C° 0 mm 5 m/S 747 mmHg 95%
    10:00 -11°C° 0 mm 5 m/S 747 mmHg 95%
    11:00 -10°C° 0 mm 5 m/S 747 mmHg 95%
    12:00 -10°C° 0 mm 5 m/S 747 mmHg 95%
    13:00 -10°C° 0 mm 5 m/S 747 mmHg 95%
    14:00 -10°C° 0 mm 5 m/S 747 mmHg 95%
    15:00 -10°C° 0 mm 4 m/S 747 mmHg 95%
    16:00 -10°C° 0 mm 4 m/S 747 mmHg 95%
    17:00 -11°C° 0 mm 4 m/S 748 mmHg 95%
    18:00 -11°C° 0 mm 4 m/S 748 mmHg 95%
    19:00 -11°C° 0 mm 4 m/S 748 mmHg 94%
    20:00 -11°C° 0 mm 4 m/S 748 mmHg 94%
    21:00 -10°C° 0 mm 3 m/S 748 mmHg 95%
    22:00 -12°C° 0 mm 3 m/S 748 mmHg 95%
    23:00 -13°C° 0 mm 3 m/S 748 mmHg 95%

    26 Januar, Samstag

    Zeit Temperatur Niederschläge Wind Luftdruck Luftfeuchtigkeit
    00:00 -13°C° 0 mm 3 m/S 748 mmHg 96%
    01:00 -14°C° 0 mm 3 m/S 748 mmHg 96%
    02:00 -14°C° 0 mm 3 m/S 748 mmHg 96%
    03:00 -14°C° 0 mm 3 m/S 747 mmHg 96%
    04:00 -13°C° 0 mm 3 m/S 747 mmHg 96%
    05:00 -14°C° 0 mm 4 m/S 747 mmHg 96%
    06:00 -14°C° 0 mm 4 m/S 747 mmHg 96%
    07:00 -14°C° 0 mm 4 m/S 747 mmHg 96%
    08:00 -14°C° 0 mm 4 m/S 747 mmHg 96%
    09:00 -12°C° 0 mm 4 m/S 747 mmHg 96%
    10:00 -12°C° 0 mm 4 m/S 747 mmHg 95%
    11:00 -11°C° 0 mm 4 m/S 747 mmHg 95%
    12:00 -11°C° 0 mm 4 m/S 747 mmHg 95%
    13:00 -10°C° 0 mm 4 m/S 746 mmHg 95%
    14:00 -10°C° 0 mm 4 m/S 746 mmHg 95%
    15:00 -10°C° 0 mm 4 m/S 746 mmHg 95%
    16:00 -10°C° 0 mm 4 m/S 746 mmHg 95%
    17:00 -11°C° 0 mm 4 m/S 746 mmHg 95%
    18:00 -11°C° 0 mm 4 m/S 746 mmHg 95%
    19:00 -11°C° 0 mm 4 m/S 746 mmHg 95%
    20:00 -11°C° 0 mm 4 m/S 746 mmHg 95%
    21:00 -11°C° 0 mm 4 m/S 746 mmHg 95%
    22:00 -10°C° 0 mm 3 m/S 746 mmHg 95%
    23:00 -10°C° 0 mm 3 m/S 746 mmHg 95%
    Mehr zeigen